sampling_time,wmo_synop_id,msc_id,stn_nam,stn_elev,lat,long,stn_typ,date_tm,rpt_typ,result_time,crnt_buoy_lat,crnt_buoy_lat_qa_summary,crnt_buoy_long,crnt_buoy_long_qa_summary,avg_air_temp_pst10mts,avg_air_temp_pst10mts_qa_summary,avg_sea_sfc_temp_pst10mts,avg_sea_sfc_temp_pst10mts_qa_summary,avg_batry_volt_pst10mts,avg_batry_volt_pst10mts_qa_summary,avg_solr_panl_crnt_pst10mts,avg_solr_panl_crnt_pst10mts_qa_summary,avg_wtr_lvl_snsr_volt_pst10mts,avg_wtr_lvl_snsr_volt_pst10mts_qa_summary,avg_wave_hgt_pst20mts,avg_wave_hgt_pst20mts_qa_summary,pk_wave_hgt_pst20mts,pk_wave_hgt_pst20mts_qa_summary,sig_wave_pd_pst20mts,sig_wave_pd_pst20mts_qa_summary,sig_wave_hgt_pst20mts,sig_wave_hgt_pst20mts_qa_summary,avg_max_wave_hgt_pst20mts,avg_max_wave_hgt_pst20mts_qa_summary,avg_max_wave_pd_pst20mts,avg_max_wave_pd_pst20mts_qa_summary,avg_wave_pd_pst20mts,avg_wave_pd_pst20mts_qa_summary,pk_wave_pd_pst20mts,pk_wave_pd_pst20mts_qa_summary,avg_stn_pres_pst10mts,avg_stn_pres_pst10mts_qa_summary,avg_wnd_spd_pst10mts,avg_wnd_spd_pst10mts_qa_summary,avg_wnd_dir_pst10mts,avg_wnd_dir_pst10mts_qa_summary,max_avg_wnd_spd_pst10mts,max_avg_wnd_spd_pst10mts_qa_summary,wnd_snsr_vert_disp,wnd_snsr_vert_disp_qa_summary,pres_tend_amt_pst3hrs,pres_tend_amt_pst3hrs_data_flag,pres_tend_char_pst3hrs,pres_tend_char_pst3hrs_data_flag,avg_mslp_pst10mts,avg_mslp_pst10mts_data_flag,avg_stn_pres_pst10mts_1,avg_stn_pres_pst10mts_1_qa_summary,avg_stn_pres_pst10mts_2,avg_stn_pres_pst10mts_2_qa_summary,avg_wnd_spd_pst10mts_1,avg_wnd_spd_pst10mts_1_qa_summary,avg_wnd_spd_pst10mts_2,avg_wnd_spd_pst10mts_2_qa_summary,avg_wnd_dir_pst10mts_1,avg_wnd_dir_pst10mts_1_qa_summary,avg_wnd_dir_pst10mts_2,avg_wnd_dir_pst10mts_2_qa_summary,max_avg_wnd_spd_pst10mts_1,max_avg_wnd_spd_pst10mts_1_qa_summary,max_avg_wnd_spd_pst10mts_2,max_avg_wnd_spd_pst10mts_2_qa_summary
2024-02-21T00:00:00Z,44489,9302001,WEST CHEDABUCTO BAY,0,45.48687,-61.14100000000001,18,2024-02-21T00:00:00.000Z,108,2024-02-21T00:02:35.802Z,45.487,100,-61.14095,100,-7.4,100,0.7,100,12.3,100,0.0,100,3.5,100,0.2,100,0.5,100,2.6,100,0.3,100,0.4,100,2.7,100,2.5,100,2.6,100,1028.8,100,24.5,100,320,100,30.6,100,5,100,2.8,1,1,1,1028.8,1,1028.8,100,1028.8,100,24.5,100,23.4,100,320,100,315,100,30.6,100,29.5,100
2024-02-21T00:10:00Z,44489,9302001,WEST CHEDABUCTO BAY,0,45.48687,-61.14100000000001,18,2024-02-21T00:10:00.000Z,110,2024-02-21T00:12:39.154Z,45.486999999999995,100,-61.14095,100,-6.3,100,1.4,100,12.3,100,0.0,100,3.5,100,,-1,,-1,,-1,,-1,,-1,,-1,,-1,,-1,1028.9,100,27.4,100,321,100,31.0,100,5,100,2.8,1,1,1,1028.9,1,1028.9,100,1028.9,100,27.4,100,25.9,100,321,100,317,100,31.0,100,29.9,100
2024-02-21T00:20:00Z,44489,9302001,WEST CHEDABUCTO BAY,0,45.48687,-61.14100000000001,18,2024-02-21T00:20:00.000Z,110,2024-02-21T00:22:41.092Z,45.486979999999996,100,-61.14095,100,-7.2,100,0.7,100,12.3,100,0.0,100,3.5,100,,-1,,-1,,-1,,-1,,-1,,-1,,-1,,-1,1029.0,100,26.3,100,324,100,32.8,100,5,100,2.8,1,1,1,1029.0,1,1029.0,100,1029.0,100,26.3,100,24.8,100,324,100,319,100,32.8,100,30.2,100
2024-02-21T00:30:00Z,44489,9302001,WEST CHEDABUCTO BAY,0,45.48687,-61.14100000000001,18,2024-02-21T00:30:00.000Z,110,2024-02-21T00:32:41.623Z,45.486999999999995,100,-61.14095,100,-7.2,100,0.7,100,12.3,100,0.0,100,3.5,100,,-1,,-1,,-1,,-1,,-1,,-1,,-1,,-1,1029.2,100,25.6,100,320,100,31.0,100,5,100,2.9,1,1,1,1029.2,1,1029.2,100,1029.2,100,25.6,100,24.5,100,320,100,316,100,31.0,100,30.2,100
2024-02-21T00:40:00Z,44489,9302001,WEST CHEDABUCTO BAY,0,45.48687,-61.14100000000001,18,2024-02-21T00:40:00.000Z,110,2024-02-21T00:42:46.147Z,45.48702,100,-61.140969999999996,100,-7.4,100,0.7,100,12.3,100,0.0,100,3.5,100,,-1,,-1,,-1,,-1,,-1,,-1,,-1,,-1,1029.4,100,23.8,100,322,100,28.1,100,5,100,2.9,1,1,1,1029.4,1,1029.4,100,1029.4,100,23.8,100,23.0,100,322,100,317,100,28.1,100,27.4,100
2024-02-21T00:50:00Z,44489,9302001,WEST CHEDABUCTO BAY,0,45.48687,-61.14100000000001,18,2024-02-21T00:50:00.000Z,110,2024-02-21T00:53:00.715Z,45.48702,100,-61.14095,100,-7.3,100,0.7,100,12.2,100,0.0,100,3.5,100,,-1,,-1,,-1,,-1,,-1,,-1,,-1,,-1,1029.6,100,23.0,100,320,100,29.2,100,5,100,2.9,1,1,1,1029.6,1,1029.6,100,1029.5,100,23.0,100,22.0,100,320,100,316,100,29.2,100,28.1,100
2024-02-21T01:00:00Z,44489,9302001,WEST CHEDABUCTO BAY,0,45.48687,-61.14100000000001,18,2024-02-21T01:00:00.000Z,108,2024-02-21T01:04:00.272Z,45.48702,100,-61.140969999999996,100,-7.3,100,0.7,100,12.3,100,0.0,100,3.5,100,0.2,100,0.5,100,2.3,100,0.3,100,0.4,100,2.3,100,2.3,100,2.3,100,1029.8,100,22.3,100,320,100,27.7,100,5,100,2.9,1,1,1,1029.8,1,1029.8,100,1029.8,100,22.3,100,21.2,100,320,100,315,100,27.7,100,27.0,100
2024-02-21T01:10:00Z,44489,9302001,WEST CHEDABUCTO BAY,0,45.48687,-61.14100000000001,18,2024-02-21T01:10:00.000Z,110,2024-02-21T01:15:57.741Z,45.48702,100,-61.14095,100,-7.5,100,0.7,100,12.3,100,0.0,100,3.5,100,,-1,,-1,,-1,,-1,,-1,,-1,,-1,,-1,1029.8,100,21.6,100,324,100,25.6,100,5,100,2.7,1,1,1,1029.8,1,1029.8,100,1029.8,100,21.6,100,20.5,100,324,100,320,100,25.6,100,25.2,100
2024-02-21T01:20:00Z,44489,9302001,WEST CHEDABUCTO BAY,0,45.48687,-61.14100000000001,18,2024-02-21T01:20:00.000Z,110,2024-02-21T01:22:56.462Z,45.487,100,-61.14095,100,-7.4,100,0.7,100,12.3,100,0.0,100,3.5,100,,-1,,-1,,-1,,-1,,-1,,-1,,-1,,-1,1029.8,100,23.4,100,330,100,31.0,100,5,100,2.5,1,1,1,1029.8,1,1029.8,100,1029.8,100,23.4,100,22.3,100,330,100,325,100,31.0,100,29.5,100
2024-02-21T01:30:00Z,44489,9302001,WEST CHEDABUCTO BAY,0,45.48687,-61.14100000000001,18,2024-02-21T01:30:00.000Z,110,2024-02-21T01:32:57.586Z,45.48702,100,-61.14093,100,-6.9,100,0.7,100,12.3,100,0.0,100,3.5,100,,-1,,-1,,-1,,-1,,-1,,-1,,-1,,-1,1029.9,100,25.9,100,333,100,33.1,100,5,100,2.4,1,1,1,1029.9,1,1029.9,100,1029.8,100,25.9,100,24.8,100,333,100,328,100,33.1,100,31.3,100
2024-02-21T01:40:00Z,44489,9302001,WEST CHEDABUCTO BAY,0,45.48687,-61.14100000000001,18,2024-02-21T01:40:00.000Z,110,2024-02-21T01:43:08.050Z,45.487,100,-61.14095,100,-6.6,100,0.7,100,12.2,100,0.0,100,3.5,100,,-1,,-1,,-1,,-1,,-1,,-1,,-1,,-1,1029.9,100,30.2,100,334,100,36.0,100,5,100,2.3,1,1,1,1029.9,1,1029.9,100,1029.9,100,30.2,100,28.8,100,334,100,330,100,36.0,100,35.3,100
2024-02-21T01:50:00Z,44489,9302001,WEST CHEDABUCTO BAY,0,45.48687,-61.14100000000001,18,2024-02-21T01:50:00.000Z,110,2024-02-21T01:53:07.277Z,45.48698,100,-61.14095,100,-6.4,100,0.7,100,12.2,100,0.0,100,3.5,100,,-1,,-1,,-1,,-1,,-1,,-1,,-1,,-1,1030.0,100,30.2,100,324,100,40.0,100,5,100,2.2,1,1,1,1030.0,1,1030.0,100,1030.0,100,30.2,100,28.8,100,324,100,320,100,40.0,100,38.5,100
2024-02-21T02:00:00Z,44489,9302001,WEST CHEDABUCTO BAY,0,45.48687,-61.14100000000001,18,2024-02-21T02:00:00.000Z,108,2024-02-21T02:03:12.265Z,45.487,100,-61.140930000000004,100,-6.7,100,0.7,100,12.3,100,0.0,100,3.5,100,0.2,100,0.6,100,2.4,100,0.4,100,0.5,100,2.4,100,2.3,100,2.4,100,1030.1,100,29.9,100,317,100,36.0,100,5,100,2.1,1,1,1,1030.1,1,1030.1,100,1030.1,100,29.9,100,28.4,100,317,100,312,100,36.0,100,34.6,100
2024-02-21T02:10:00Z,44489,9302001,WEST CHEDABUCTO BAY,0,45.48687,-61.14100000000001,18,2024-02-21T02:10:00.000Z,110,2024-02-21T02:16:13.814Z,45.48698,100,-61.14092,100,-6.9,100,0.7,100,12.3,100,0.0,100,3.5,100,,-1,,-1,,-1,,-1,,-1,,-1,,-1,,-1,1030.1,100,29.9,100,317,100,36.4,100,5,100,1.9,1,1,1,1030.1,1,1030.1,100,1030.1,100,29.9,100,28.4,100,317,100,312,100,36.4,100,35.6,100
2024-02-21T02:20:00Z,44489,9302001,WEST CHEDABUCTO BAY,0,45.48687,-61.14100000000001,18,2024-02-21T02:20:00.000Z,110,2024-02-21T02:23:12.169Z,45.486979999999996,100,-61.14095,100,-6.8,100,0.7,100,12.2,100,0.0,100,3.5,100,,-1,,-1,,-1,,-1,,-1,,-1,,-1,,-1,1030.2,100,29.9,100,315,100,36.7,100,5,100,1.9,1,1,1,1030.2,1,1030.2,100,1030.2,100,29.9,100,28.1,100,315,100,310,100,36.7,100,35.3,100
2024-02-21T02:30:00Z,44489,9302001,WEST CHEDABUCTO BAY,0,45.48687,-61.14100000000001,18,2024-02-21T02:30:00.000Z,110,2024-02-21T02:33:22.809Z,45.48697,100,-61.14095,100,-7.0,100,0.7,100,12.3,100,0.0,100,3.5,100,,-1,,-1,,-1,,-1,,-1,,-1,,-1,,-1,1030.3,100,28.1,100,314,100,33.8,100,5,100,1.8,1,1,1,1030.3,1,1030.3,100,1030.3,100,28.1,100,26.6,100,314,100,309,100,33.8,100,32.4,100
2024-02-21T02:40:00Z,44489,9302001,WEST CHEDABUCTO BAY,0,45.48687,-61.14100000000001,18,2024-02-21T02:40:00.000Z,110,2024-02-21T02:43:28.032Z,45.48697,100,-61.140969999999996,100,-7.0,100,0.7,100,12.2,100,0.0,100,3.5,100,,-1,,-1,,-1,,-1,,-1,,-1,,-1,,-1,1030.4,100,29.2,100,315,100,36.7,100,5,100,1.9,1,1,1,1030.4,1,1030.4,100,1030.4,100,29.2,100,27.7,100,315,100,310,100,36.7,100,36.4,100
2024-02-21T02:50:00Z,44489,9302001,WEST CHEDABUCTO BAY,0,45.48687,-61.14100000000001,18,2024-02-21T02:50:00.000Z,110,2024-02-21T02:53:23.506Z,45.48698,100,-61.14100000000001,100,-7.1,100,0.7,100,12.2,100,0.0,100,3.5,100,,-1,,-1,,-1,,-1,,-1,,-1,,-1,,-1,1030.5,100,28.8,100,314,100,35.6,100,5,100,1.9,1,1,1,1030.5,1,1030.5,100,1030.5,100,28.8,100,27.7,100,314,100,309,100,35.6,100,34.9,100
2024-02-21T03:00:00Z,44489,9302001,WEST CHEDABUCTO BAY,0,45.48687,-61.14100000000001,18,2024-02-21T03:00:00.000Z,108,2024-02-21T03:03:24.315Z,45.486979999999996,100,-61.140980000000006,100,-7.1,100,0.7,100,12.2,100,0.0,100,3.5,100,0.2,100,0.6,100,2.4,100,0.3,100,0.4,100,2.4,100,2.3,100,2.4,100,1030.6,100,29.5,100,313,100,37.8,100,5,100,1.8,1,1,1,1030.6,1,1030.6,100,1030.5,100,29.5,100,28.4,100,313,100,308,100,37.8,100,36.0,100
2024-02-21T03:10:00Z,44489,9302001,WEST CHEDABUCTO BAY,0,45.48687,-61.14100000000001,18,2024-02-21T03:10:00.000Z,110,2024-02-21T03:16:28.922Z,45.48695,100,-61.14095,100,-7.1,100,0.7,100,12.2,100,0.0,100,3.5,100,,-1,,-1,,-1,,-1,,-1,,-1,,-1,,-1,1030.4,100,30.2,100,313,100,38.9,100,5,100,1.5,1,1,1,1030.4,1,1030.4,100,1030.4,100,30.2,100,28.8,100,313,100,308,100,38.9,100,37.4,100
2024-02-21T03:20:00Z,44489,9302001,WEST CHEDABUCTO BAY,0,45.48687,-61.14100000000001,18,2024-02-21T03:20:00.000Z,110,2024-02-21T03:23:28.350Z,45.48697,100,-61.140969999999996,100,-7.1,100,0.7,100,12.2,100,0.0,100,3.5,100,,-1,,-1,,-1,,-1,,-1,,-1,,-1,,-1,1030.6,100,31.3,100,313,100,38.5,100,5,100,1.6,1,1,1,1030.6,1,1030.6,100,1030.5,100,31.3,100,29.9,100,313,100,308,100,38.5,100,37.4,100
2024-02-21T03:30:00Z,44489,9302001,WEST CHEDABUCTO BAY,0,45.48687,-61.14100000000001,18,2024-02-21T03:30:00.000Z,110,2024-02-21T03:33:32.642Z,45.48697,100,-61.14095,100,-7.3,100,0.7,100,12.2,100,0.0,100,3.5,100,,-1,,-1,,-1,,-1,,-1,,-1,,-1,,-1,1030.6,100,31.3,100,317,100,39.2,100,5,100,1.4,1,1,1,1030.6,1,1030.6,100,1030.5,100,31.3,100,30.2,100,317,100,312,100,39.2,100,37.4,100
2024-02-21T03:40:00Z,44489,9302001,WEST CHEDABUCTO BAY,0,45.48687,-61.14100000000001,18,2024-02-21T03:40:00.000Z,110,2024-02-21T03:43:30.109Z,45.487,100,-61.14095,100,-7.1,100,0.7,100,12.2,100,0.0,100,3.5,100,,-1,,-1,,-1,,-1,,-1,,-1,,-1,,-1,1030.7,100,30.2,100,320,100,36.7,100,5,100,1.3,1,1,1,1030.7,1,1030.7,100,1030.7,100,30.2,100,29.2,100,320,100,315,100,36.7,100,36.4,100
2024-02-21T03:50:00Z,44489,9302001,WEST CHEDABUCTO BAY,0,45.48687,-61.14100000000001,18,2024-02-21T03:50:00.000Z,110,2024-02-21T03:53:37.810Z,45.486999999999995,100,-61.14097,100,-7.2,100,0.6,100,12.2,100,0.0,100,3.5,100,,-1,,-1,,-1,,-1,,-1,,-1,,-1,,-1,1030.8,100,31.3,100,321,100,39.2,100,5,100,1.3,1,1,1,1030.8,1,1030.8,100,1030.8,100,31.3,100,30.2,100,321,100,316,100,39.2,100,37.8,100
2024-02-21T04:00:00Z,44489,9302001,WEST CHEDABUCTO BAY,0,45.48687,-61.14100000000001,18,2024-02-21T04:00:00.000Z,108,2024-02-21T04:02:30.330Z,45.486979999999996,100,-61.14095,100,-7.2,100,0.6,100,12.2,100,0.0,100,3.5,100,0.3,100,0.6,100,2.4,100,0.4,100,0.5,100,2.4,100,2.4,100,2.4,100,1031.0,100,32.0,100,317,100,39.6,100,5,100,1.2,1,3,1,1031.0,1,1031.0,100,1031.0,100,32.0,100,31.0,100,317,100,312,100,39.6,100,38.2,100
2024-02-21T04:10:00Z,44489,9302001,WEST CHEDABUCTO BAY,0,45.48687,-61.14100000000001,18,2024-02-21T04:10:00.000Z,110,2024-02-21T04:16:44.234Z,45.486999999999995,100,-61.14095,100,-7.3,100,0.7,100,12.2,100,0.0,100,3.5,100,,-1,,-1,,-1,,-1,,-1,,-1,,-1,,-1,1031.0,100,32.8,100,317,100,38.2,100,5,100,1.2,1,3,1,1031.0,1,1031.0,100,1031.0,100,32.8,100,31.7,100,317,100,312,100,38.2,100,37.8,100
2024-02-21T04:20:00Z,44489,9302001,WEST CHEDABUCTO BAY,0,45.48687,-61.14100000000001,18,2024-02-21T04:20:00.000Z,110,2024-02-21T04:22:47.255Z,45.486979999999996,100,-61.140969999999996,100,-7.3,100,0.7,100,12.2,100,0.0,100,3.5,100,,-1,,-1,,-1,,-1,,-1,,-1,,-1,,-1,1031.1,100,32.4,100,323,100,37.4,100,5,100,1.3,1,3,1,1031.1,1,1031.1,100,1031.1,100,32.4,100,31.0,100,323,100,318,100,37.4,100,36.7,100
2024-02-21T04:30:00Z,44489,9302001,WEST CHEDABUCTO BAY,0,45.48687,-61.14100000000001,18,2024-02-21T04:30:00.000Z,110,2024-02-21T04:32:49.923Z,45.48698,100,-61.14097,100,-6.9,100,0.6,100,12.2,100,0.0,100,3.5,100,,-1,,-1,,-1,,-1,,-1,,-1,,-1,,-1,1031.0,100,34.6,100,331,100,41.4,100,5,100,1.1,1,1,1,1031.0,1,1031.0,100,1031.0,100,34.6,100,33.1,100,331,100,326,100,41.4,100,40.0,100
2024-02-21T04:40:00Z,44489,9302001,WEST CHEDABUCTO BAY,0,45.48687,-61.14100000000001,18,2024-02-21T04:40:00.000Z,110,2024-02-21T04:42:48.195Z,45.487,100,-61.140969999999996,100,-6.7,100,0.6,100,12.2,100,0.0,100,3.5,100,,-1,,-1,,-1,,-1,,-1,,-1,,-1,,-1,1031.3,100,33.5,100,332,100,42.1,100,5,100,1.4,1,3,1,1031.3,1,1031.3,100,1031.2,100,33.5,100,32.4,100,332,100,327,100,42.1,100,41.4,100
2024-02-21T04:50:00Z,44489,9302001,WEST CHEDABUCTO BAY,0,45.48687,-61.14100000000001,18,2024-02-21T04:50:00.000Z,110,2024-02-21T04:52:46.282Z,45.48698,100,-61.14095,100,-7.0,100,0.7,100,12.2,100,0.0,100,3.5,100,,-1,,-1,,-1,,-1,,-1,,-1,,-1,,-1,1031.5,100,30.2,100,322,100,37.8,100,5,100,1.5,1,3,1,1031.5,1,1031.5,100,1031.4,100,30.2,100,29.5,100,322,100,317,100,37.8,100,36.4,100
2024-02-21T05:00:00Z,44489,9302001,WEST CHEDABUCTO BAY,0,45.48687,-61.14100000000001,18,2024-02-21T05:00:00.000Z,108,2024-02-21T05:02:58.283Z,45.487,100,-61.140980000000006,100,-7.0,100,0.6,100,12.2,100,0.0,100,3.5,100,0.3,100,0.8,100,2.6,100,0.5,100,0.6,100,2.6,100,2.6,100,2.9,100,1031.7,100,31.3,100,319,100,37.8,100,5,100,1.6,1,3,1,1031.7,1,1031.7,100,1031.6,100,31.3,100,29.9,100,319,100,314,100,37.8,100,36.0,100
2024-02-21T05:10:00Z,44489,9302001,WEST CHEDABUCTO BAY,0,45.48687,-61.14100000000001,18,2024-02-21T05:10:00.000Z,110,2024-02-21T05:15:50.848Z,45.486999999999995,100,-61.14097,100,-7.1,100,0.6,100,12.2,100,0.0,100,3.5,100,,-1,,-1,,-1,,-1,,-1,,-1,,-1,,-1,1031.8,100,31.0,100,320,100,36.7,100,5,100,1.7,1,3,1,1031.8,1,1031.8,100,1031.7,100,31.0,100,29.9,100,320,100,315,100,36.7,100,36.7,100
2024-02-21T05:20:00Z,44489,9302001,WEST CHEDABUCTO BAY,0,45.48687,-61.14100000000001,18,2024-02-21T05:20:00.000Z,110,2024-02-21T05:22:49.540Z,45.48702,100,-61.140980000000006,100,-7.1,100,0.6,100,12.2,100,0.0,100,3.5,100,,-1,,-1,,-1,,-1,,-1,,-1,,-1,,-1,1031.8,100,32.8,100,323,100,39.2,100,5,100,1.6,1,3,1,1031.8,1,1031.8,100,1031.8,100,32.8,100,31.7,100,323,100,318,100,39.2,100,37.8,100
2024-02-21T05:30:00Z,44489,9302001,WEST CHEDABUCTO BAY,0,45.48687,-61.14100000000001,18,2024-02-21T05:30:00.000Z,110,2024-02-21T05:33:00.352Z,45.486999999999995,100,-61.140980000000006,100,-7.1,100,0.6,100,12.2,100,0.0,100,3.5,100,,-1,,-1,,-1,,-1,,-1,,-1,,-1,,-1,1031.8,100,34.9,100,328,100,43.2,100,5,100,1.5,1,3,1,1031.8,1,1031.8,100,1031.8,100,34.9,100,33.5,100,328,100,323,100,43.2,100,41.4,100
2024-02-21T05:40:00Z,44489,9302001,WEST CHEDABUCTO BAY,0,45.48687,-61.14100000000001,18,2024-02-21T05:40:00.000Z,110,2024-02-21T05:43:13.345Z,45.48702,100,-61.140969999999996,100,-6.8,100,0.6,100,12.2,100,0.0,100,3.5,100,,-1,,-1,,-1,,-1,,-1,,-1,,-1,,-1,1031.9,100,36.7,100,332,100,42.8,100,5,100,1.5,1,3,1,1031.9,1,1031.9,100,1031.8,100,36.7,100,35.6,100,332,100,327,100,42.8,100,41.8,100
2024-02-21T05:50:00Z,44489,9302001,WEST CHEDABUCTO BAY,0,45.48687,-61.14100000000001,18,2024-02-21T05:50:00.000Z,110,2024-02-21T05:53:17.970Z,45.486999999999995,100,-61.14097,100,-7.0,100,0.6,100,12.2,100,0.0,100,3.5,100,,-1,,-1,,-1,,-1,,-1,,-1,,-1,,-1,1032.1,100,37.8,100,336,100,45.4,100,5,100,1.5,1,3,1,1032.1,1,1032.1,100,1032.0,100,37.8,100,36.7,100,336,100,331,100,45.4,100,44.6,100
2024-02-21T06:00:00Z,44489,9302001,WEST CHEDABUCTO BAY,0,45.48687,-61.14100000000001,18,2024-02-21T06:00:00.000Z,108,2024-02-21T06:03:13.145Z,45.486979999999996,100,-61.140969999999996,100,-7.0,100,0.6,100,12.2,100,0.0,100,3.5,100,0.4,100,1.1,100,2.7,100,0.6,100,0.7,100,2.7,100,2.6,100,2.9,100,1032.1,100,37.4,100,336,100,45.4,100,5,100,1.5,1,2,1,1032.1,1,1032.1,100,1032.1,100,37.4,100,36.4,100,336,100,331,100,45.4,100,45.4,100
2024-02-21T06:10:00Z,44489,9302001,WEST CHEDABUCTO BAY,0,45.48687,-61.14100000000001,18,2024-02-21T06:10:00.000Z,110,2024-02-21T06:16:16.197Z,45.48698,100,-61.14097,100,-6.8,100,0.6,100,12.2,100,0.0,100,3.5,100,,-1,,-1,,-1,,-1,,-1,,-1,,-1,,-1,1032.1,100,36.4,100,338,100,46.4,100,5,100,1.7,1,1,1,1032.1,1,1032.1,100,1032.1,100,36.4,100,34.9,100,338,100,333,100,46.4,100,46.1,100
2024-02-21T06:20:00Z,44489,9302001,WEST CHEDABUCTO BAY,0,45.48687,-61.14100000000001,18,2024-02-21T06:20:00.000Z,110,2024-02-21T06:23:14.906Z,45.486979999999996,100,-61.140980000000006,100,-6.8,100,0.6,100,12.2,100,0.0,100,3.5,100,,-1,,-1,,-1,,-1,,-1,,-1,,-1,,-1,1032.4,100,33.1,100,334,100,42.1,100,5,100,1.9,1,3,1,1032.4,1,1032.4,100,1032.4,100,33.1,100,32.0,100,334,100,330,100,42.1,100,41.0,100
2024-02-21T06:30:00Z,44489,9302001,WEST CHEDABUCTO BAY,0,45.48687,-61.14100000000001,18,2024-02-21T06:30:00.000Z,110,2024-02-21T06:33:17.877Z,45.48698,100,-61.14097,100,-6.6,100,0.6,100,12.2,100,0.0,100,3.5,100,,-1,,-1,,-1,,-1,,-1,,-1,,-1,,-1,1032.5,100,35.6,100,340,100,42.8,100,5,100,1.9,1,3,1,1032.5,1,1032.5,100,1032.4,100,35.6,100,34.6,100,340,100,335,100,42.8,100,42.5,100
2024-02-21T06:40:00Z,44489,9302001,WEST CHEDABUCTO BAY,0,45.48687,-61.14100000000001,18,2024-02-21T06:40:00.000Z,110,2024-02-21T06:43:19.869Z,45.486979999999996,100,-61.140969999999996,100,-6.7,100,0.6,100,12.2,100,0.0,100,3.5,100,,-1,,-1,,-1,,-1,,-1,,-1,,-1,,-1,1032.6,100,33.8,100,333,100,42.5,100,5,100,1.9,1,3,1,1032.6,1,1032.6,100,1032.6,100,33.8,100,32.8,100,333,100,329,100,42.5,100,41.4,100
2024-02-21T06:50:00Z,44489,9302001,WEST CHEDABUCTO BAY,0,45.48687,-61.14100000000001,18,2024-02-21T06:50:00.000Z,110,2024-02-21T06:53:22.214Z,45.486999999999995,100,-61.14097,100,-7.0,100,0.6,100,12.2,100,0.0,100,3.5,100,,-1,,-1,,-1,,-1,,-1,,-1,,-1,,-1,1032.7,100,33.8,100,326,100,38.2,100,5,100,1.8,1,2,1,1032.7,1,1032.7,100,1032.6,100,33.8,100,32.8,100,326,100,321,100,38.2,100,38.2,100
2024-02-21T07:00:00Z,44489,9302001,WEST CHEDABUCTO BAY,0,45.48687,-61.14100000000001,18,2024-02-21T07:00:00.000Z,108,2024-02-21T07:03:23.119Z,45.48702,100,-61.140969999999996,100,-7.1,100,0.6,100,12.2,100,0.0,100,3.5,100,0.3,100,0.9,100,2.7,100,0.5,100,0.6,100,2.7,100,2.6,100,3.0,100,1032.8,100,32.4,100,327,100,39.2,100,5,100,1.8,1,2,1,1032.8,1,1032.8,100,1032.8,100,32.4,100,31.3,100,327,100,322,100,39.2,100,38.9,100
2024-02-21T07:10:00Z,44489,9302001,WEST CHEDABUCTO BAY,0,45.48687,-61.14100000000001,18,2024-02-21T07:10:00.000Z,110,2024-02-21T07:16:34.707Z,45.486999999999995,100,-61.14097,100,-7.2,100,0.6,100,12.2,100,0.0,100,3.5,100,,-1,,-1,,-1,,-1,,-1,,-1,,-1,,-1,1033.0,100,30.2,100,326,100,36.4,100,5,100,2.0,1,3,1,1033.0,1,1033.0,100,1032.9,100,30.2,100,29.2,100,326,100,321,100,36.4,100,35.3,100
2024-02-21T07:20:00Z,44489,9302001,WEST CHEDABUCTO BAY,0,45.48687,-61.14100000000001,18,2024-02-21T07:20:00.000Z,110,2024-02-21T07:22:38.037Z,45.487,100,-61.140969999999996,100,-7.2,100,0.6,100,12.2,100,0.0,100,3.5,100,,-1,,-1,,-1,,-1,,-1,,-1,,-1,,-1,1032.9,100,31.0,100,331,100,37.4,100,5,100,1.8,1,1,1,1032.9,1,1032.9,100,1032.9,100,31.0,100,30.2,100,331,100,326,100,37.4,100,36.0,100
2024-02-21T07:30:00Z,44489,9302001,WEST CHEDABUCTO BAY,0,45.48687,-61.14100000000001,18,2024-02-21T07:30:00.000Z,110,2024-02-21T07:33:35.964Z,45.486999999999995,100,-61.14095,100,-7.2,100,0.6,100,12.2,100,0.0,100,3.5,100,,-1,,-1,,-1,,-1,,-1,,-1,,-1,,-1,1033.1,100,30.6,100,329,100,35.3,100,5,100,2.1,1,1,1,1033.1,1,1033.1,100,1033.0,100,30.6,100,29.5,100,329,100,324,100,35.3,100,34.6,100
2024-02-21T07:40:00Z,44489,9302001,WEST CHEDABUCTO BAY,0,45.48687,-61.14100000000001,18,2024-02-21T07:40:00.000Z,110,2024-02-21T07:43:34.044Z,45.48702,100,-61.14095,100,-7.3,100,0.6,100,12.2,100,0.0,100,3.5,100,,-1,,-1,,-1,,-1,,-1,,-1,,-1,,-1,1033.3,100,28.8,100,330,100,34.2,100,5,100,2.0,1,3,1,1033.3,1,1033.3,100,1033.2,100,28.8,100,27.7,100,330,100,325,100,34.2,100,34.2,100
2024-02-21T07:50:00Z,44489,9302001,WEST CHEDABUCTO BAY,0,45.48687,-61.14100000000001,18,2024-02-21T07:50:00.000Z,110,2024-02-21T07:52:35.180Z,45.486999999999995,100,-61.140980000000006,100,-7.3,100,0.6,100,12.2,100,0.0,100,3.5,100,,-1,,-1,,-1,,-1,,-1,,-1,,-1,,-1,1033.4,100,25.9,100,330,100,31.3,100,5,100,1.9,1,3,1,1033.4,1,1033.4,100,1033.4,100,25.9,100,25.2,100,330,100,325,100,31.3,100,31.3,100
2024-02-21T08:00:00Z,44489,9302001,WEST CHEDABUCTO BAY,0,45.48687,-61.14100000000001,18,2024-02-21T08:00:00.000Z,108,2024-02-21T08:03:34.839Z,45.487,100,-61.140980000000006,100,-7.3,100,0.6,100,12.2,100,0.0,100,3.5,100,0.3,100,0.7,100,2.6,100,0.4,100,0.5,100,2.6,100,2.5,100,2.8,100,1033.3,100,24.8,100,336,100,31.7,100,5,100,1.7,1,3,1,1033.3,1,1033.3,100,1033.3,100,24.8,100,24.5,100,336,100,332,100,31.7,100,31.0,100
2024-02-21T08:10:00Z,44489,9302001,WEST CHEDABUCTO BAY,0,45.48687,-61.14100000000001,18,2024-02-21T08:10:00.000Z,110,2024-02-21T08:15:35.994Z,45.48702,100,-61.14097,100,-7.1,100,0.6,100,12.2,100,0.0,100,3.5,100,,-1,,-1,,-1,,-1,,-1,,-1,,-1,,-1,1033.4,100,23.8,100,333,100,29.2,100,5,100,1.6,1,3,1,1033.4,1,1033.4,100,1033.4,100,23.8,100,23.0,100,333,100,329,100,29.2,100,29.5,100
2024-02-21T08:20:00Z,44489,9302001,WEST CHEDABUCTO BAY,0,45.48687,-61.14100000000001,18,2024-02-21T08:20:00.000Z,110,2024-02-21T08:22:38.808Z,45.48702,100,-61.14102,100,-7.2,100,0.6,100,12.2,100,0.0,100,3.5,100,,-1,,-1,,-1,,-1,,-1,,-1,,-1,,-1,1033.5,100,21.6,100,335,100,26.6,100,5,100,1.7,1,2,1,1033.5,1,1033.5,100,1033.5,100,21.6,100,21.2,100,335,100,330,100,26.6,100,26.6,100
2024-02-21T08:30:00Z,44489,9302001,WEST CHEDABUCTO BAY,0,45.48687,-61.14100000000001,18,2024-02-21T08:30:00.000Z,110,2024-02-21T08:32:38.320Z,45.486999999999995,100,-61.14102,100,-7.0,100,0.6,100,12.2,100,0.0,100,3.5,100,,-1,,-1,,-1,,-1,,-1,,-1,,-1,,-1,1033.6,100,21.6,100,341,100,29.9,100,5,100,1.8,1,1,1,1033.6,1,1033.6,100,1033.6,100,21.6,100,21.2,100,341,100,336,100,29.9,100,30.2,100
2024-02-21T08:40:00Z,44489,9302001,WEST CHEDABUCTO BAY,0,45.48687,-61.14100000000001,18,2024-02-21T08:40:00.000Z,110,2024-02-21T08:42:58.686Z,45.487,100,-61.14105,100,-6.7,100,0.6,100,12.2,100,0.0,100,3.5,100,,-1,,-1,,-1,,-1,,-1,,-1,,-1,,-1,1033.6,100,19.8,100,352,100,28.4,100,5,100,1.8,1,1,1,1033.6,1,1033.6,100,1033.6,100,19.8,100,19.4,100,352,100,347,100,28.4,100,26.6,100
2024-02-21T08:50:00Z,44489,9302001,WEST CHEDABUCTO BAY,0,45.48687,-61.14100000000001,18,2024-02-21T08:50:00.000Z,110,2024-02-21T08:53:06.939Z,45.48702,100,-61.14105,100,-7.3,100,0.6,100,12.2,100,0.0,100,3.5,100,,-1,,-1,,-1,,-1,,-1,,-1,,-1,,-1,1033.8,100,16.6,100,327,100,24.5,100,5,100,1.8,1,1,1,1033.8,1,1033.8,100,1033.8,100,16.6,100,15.8,100,327,100,323,100,24.5,100,24.1,100
2024-02-21T09:00:00Z,44489,9302001,WEST CHEDABUCTO BAY,0,45.48687,-61.14100000000001,18,2024-02-21T09:00:00.000Z,108,2024-02-21T09:03:04.490Z,45.487,100,-61.140980000000006,100,-7.6,100,0.6,100,12.2,100,0.0,100,3.5,100,0.2,100,0.6,100,2.4,100,0.4,100,0.5,100,2.5,100,2.4,100,2.5,100,1033.7,100,19.1,100,315,100,23.0,100,5,100,1.6,1,1,1,1033.7,1,1033.7,100,1033.7,100,19.1,100,18.4,100,315,100,310,100,23.0,100,22.7,100
2024-02-21T09:10:00Z,44489,9302001,WEST CHEDABUCTO BAY,0,45.48687,-61.14100000000001,18,2024-02-21T09:10:00.000Z,110,2024-02-21T09:16:05.693Z,45.486999999999995,100,-61.14097,100,-7.6,100,0.6,100,12.2,100,0.0,100,3.5,100,,-1,,-1,,-1,,-1,,-1,,-1,,-1,,-1,1033.8,100,21.2,100,313,100,27.0,100,5,100,1.7,1,1,1,1033.8,1,1033.8,100,1033.8,100,21.2,100,20.9,100,313,100,308,100,27.0,100,26.3,100